Change the Weather History Date:

Saturday, November 2, 2013

  Actual Average Record
Temperature  
Mean Temperature 62 °F -  
Max Temperature 71 °F 70 °F 81 °F (1971)
Min Temperature 52 °F 51 °F 24 °F (1976)
Degree Days  
Heating Degree Days 2    
Growing Degree Days 12 (Base 50)    
Moisture  
Dew Point 56 °F    
Average Humidity 86    
Maximum Humidity 100    
Minimum Humidity 41    
Precipitation  
Precipitation 0.00 in - - ()
Sea Level Pressure  
Sea Level Pressure 29.73 in    
Wind  
Wind Speed 1 mph (NNW)    
Max Wind Speed 8 mph    
Max Gust Speed 17 mph    
Visibility 7 miles    
Events Fog , Rain    
Averages and records for this station are not official NWS values.
T = Trace of Precipitation, MM = Missing Value Source: NWS Daily Summary

Daily Weather History Graph

Daily Weather History Graph

Search for Another Location

Airport or City:

Trip Planner

Search our weather history database for the weather conditions in past years. The results will help you decide how hot, cold, wet, or windy it might be!

Date:

Astronomy

Nov. 02, 2013 Rise Set
Actual Time 7:32 AM EDT 6:02 PM EDT
Civil Twilight 7:04 AM EDT 6:30 PM EDT
Nautical Twilight 6:33 AM EDT 7:01 PM EDT
Astronomical Twilight 6:02 AM EDT 7:32 PM EDT
Moon 6:27 AM EDT (11/2) 5:32 PM EDT (11/2)
Length of Visible Light 11h 25m
Length of Day
10h 29m
Waning Crescent, 1% of the Moon is Illuminated
Nov 2
Waning Crescent
Nov 3
New
Nov 10
First Quarter
Nov 17
Full
Nov 25
Last Quarter

Hourly Weather History & Observations

Time (EDT) Temp. Dew Point Humidity Pressure Visibility Wind Dir Wind Speed Gust Speed Precip Events Conditions
12:02 AM 65.3 °F 65.3 °F 100% 29.69 in 4.0 mi Calm Calm - N/A   Scattered Clouds
12:22 AM 64.9 °F 64.9 °F 100% 29.68 in 3.0 mi Calm Calm - N/A   Scattered Clouds
12:42 AM 63.9 °F 63.9 °F 100% 29.68 in 0.5 mi Calm Calm - N/A Fog Fog
1:02 AM 65.1 °F 65.1 °F 100% 29.69 in 3.0 mi Calm Calm - N/A   Mostly Cloudy
1:22 AM 64.9 °F 64.9 °F 100% 29.68 in 7.0 mi Calm Calm - N/A   Clear
1:42 AM 65.1 °F 65.1 °F 100% 29.68 in 10.0 mi West 3.5 mph - N/A   Clear
2:02 AM 64.4 °F 64.4 °F 100% 29.67 in 10.0 mi Calm Calm - N/A   Mostly Cloudy
2:22 AM 65.3 °F 65.3 °F 100% 29.67 in 10.0 mi Calm Calm - N/A   Overcast
2:42 AM 64.6 °F 64.6 °F 100% 29.67 in 10.0 mi Calm Calm - N/A   Scattered Clouds
3:02 AM 64.0 °F 64.0 °F 100% 29.67 in 10.0 mi Calm Calm - N/A   Clear
3:22 AM 64.4 °F 64.4 °F 100% 29.68 in 10.0 mi Calm Calm - N/A   Scattered Clouds
3:42 AM 63.5 °F 63.5 °F 100% 29.68 in 10.0 mi Calm Calm - N/A   Scattered Clouds
4:02 AM 61.9 °F 61.9 °F 100% 29.68 in 7.0 mi Calm Calm - N/A   Clear
4:22 AM 60.8 °F 60.8 °F 100% 29.68 in 4.0 mi Calm Calm - N/A   Clear
4:42 AM 60.1 °F 60.1 °F 100% 29.69 in 0.5 mi Calm Calm - N/A Fog Fog
5:02 AM 60.4 °F 60.4 °F 100% 29.69 in 2.5 mi NNW 8.1 mph - N/A   Overcast
5:22 AM 60.1 °F 60.1 °F 100% 29.70 in 1.2 mi Calm Calm - N/A   Overcast
5:42 AM 59.9 °F 59.9 °F 100% 29.71 in 3.0 mi NNE 4.6 mph - N/A   Overcast
5:53 AM 59.0 °F 59.0 °F 100% 29.72 in 3.0 mi NNW 3.5 mph - N/A   Overcast
6:03 AM 59.4 °F 59.4 °F 100% 29.72 in 4.0 mi Calm Calm - N/A   Overcast
6:21 AM 58.1 °F 58.1 °F 100% 29.72 in 4.0 mi Calm Calm - N/A   Scattered Clouds
6:53 AM 57.2 °F 57.2 °F 100% 29.72 in 4.0 mi Calm Calm - N/A   Mostly Cloudy
7:53 AM 55.4 °F 55.4 °F 100% 29.72 in 6.0 mi Calm Calm - N/A   Scattered Clouds
8:50 AM 57.2 °F 57.2 °F 100% 29.74 in 10.0 mi Calm Calm - N/A   Scattered Clouds
9:50 AM 59.0 °F 59.0 °F 100% 29.74 in 10.0 mi Calm Calm - N/A   Mostly Cloudy
10:50 AM 60.8 °F 60.8 °F 100% 29.73 in 10.0 mi Calm Calm - N/A   Scattered Clouds
11:47 AM 66.2 °F 55.4 °F 68% 29.73 in 10.0 mi Calm Calm - N/A   Scattered Clouds
12:49 PM 71.6 °F 46.4 °F 41% 29.73 in 10.0 mi WNW 5.8 mph - N/A   Scattered Clouds
1:50 PM 71.6 °F 46.4 °F 41% 29.72 in 10.0 mi NW 5.8 mph - N/A   Scattered Clouds
2:50 PM 71.6 °F 46.4 °F 41% 29.71 in 10.0 mi WNW 5.8 mph - N/A   Scattered Clouds
3:50 PM 69.8 °F 46.4 °F 43% 29.70 in 10.0 mi NW 5.8 mph - N/A   Scattered Clouds
4:50 PM 66.2 °F 46.4 °F 49% 29.73 in 10.0 mi North 8.1 mph - N/A   Mostly Cloudy
5:45 PM 62.6 °F 48.2 °F 59% 29.77 in 10.0 mi NNW 6.9 mph 17.3 mph N/A Rain Rain
6:50 PM 57.2 °F 51.8 °F 82% 29.81 in 7.0 mi NNW 6.9 mph - N/A Rain Light Rain
7:45 PM 57.2 °F 48.2 °F 72% 29.85 in 10.0 mi NNW 5.8 mph - N/A   Mostly Cloudy
8:50 PM 55.4 °F 46.4 °F 72% 29.85 in 10.0 mi NNW 5.8 mph - N/A   Scattered Clouds
10:44 PM 54.9 °F 43.9 °F 66% 29.88 in 10.0 mi NNW 6.9 mph - N/A   Clear
11:05 PM 54.5 °F 43.3 °F 66% 29.88 in 10.0 mi Calm Calm - N/A   Clear
11:25 PM 54.5 °F 42.8 °F 65% 29.90 in 10.0 mi Calm Calm - N/A   Clear
11:45 PM 52.7 °F 43.3 °F 70% 29.90 in 10.0 mi NW 8.1 mph - N/A   Clear